Information on these data can be found in provided Readme document
Contact Info: Zachary Fasnacht (zachary.fasnacht@ssaihq.com); Nickolay Krotkov (nickolay.a.krotkov@nasa.gov); Lok Lamsal (lok.lamsal@nasa.gov)

FillValue: -999.
ScaleFactor: 1e15
Units: molecules/cm^2

Date(yyyy-mm-dd),City,Country,LonCenter,LatCenter,BoundingCoordinates,Median,Q1,Q3,Mean,Baseline_Median,Baseline_Q1,Baseline_Q3,Baseline_Mean,NumGoodSamples,NumTotalSamples
2015-01-01,Hanoi,Vietnam,105.8342,21.0278,[105.3342 20.5278 106.3342 21.5278],5.385,3.157,8.525,6.253,4.163,2.732,5.842,4.859,87.0,552.0
2015-01-02,Hanoi,Vietnam,105.8342,21.0278,[105.3342 20.5278 106.3342 21.5278],5.385,3.295,8.577,6.362,4.002,2.62,5.774,4.773,85.0,566.0
2015-01-03,Hanoi,Vietnam,105.8342,21.0278,[105.3342 20.5278 106.3342 21.5278],5.385,3.295,8.577,6.362,3.96,2.656,5.881,4.854,85.0,548.0
2015-01-04,Hanoi,Vietnam,105.8342,21.0278,[105.3342 20.5278 106.3342 21.5278],5.385,3.295,8.577,6.362,3.921,2.641,5.793,4.81,85.0,565.0
2015-01-05,Hanoi,Vietnam,105.8342,21.0278,[105.3342 20.5278 106.3342 21.5278],5.385,2.491,8.97,6.169,3.944,2.214,6.325,4.859,64.0,557.0
2015-01-06,Hanoi,Vietnam,105.8342,21.0278,[105.3342 20.5278 106.3342 21.5278],3.967,1.911,7.236,5.329,3.359,1.945,5.695,4.557,90.0,568.0
2015-01-07,Hanoi,Vietnam,105.8342,21.0278,[105.3342 20.5278 106.3342 21.5278],2.886,1.551,4.935,3.652,2.958,1.909,4.756,3.547,70.0,568.0
2015-01-08,Hanoi,Vietnam,105.8342,21.0278,[105.3342 20.5278 106.3342 21.5278],3.36,1.871,5.455,4.091,3.234,2.045,5.108,3.833,93.0,563.0
2015-01-09,Hanoi,Vietnam,105.8342,21.0278,[105.3342 20.5278 106.3342 21.5278],2.921,1.551,4.905,3.557,2.981,1.925,4.744,3.498,74.0,573.0
2015-01-10,Hanoi,Vietnam,105.8342,21.0278,[105.3342 20.5278 106.3342 21.5278],2.921,1.551,4.905,3.557,3.002,1.925,4.745,3.535,74.0,522.0
2015-01-11,Hanoi,Vietnam,105.8342,21.0278,[105.3342 20.5278 106.3342 21.5278],2.987,1.551,4.905,3.596,2.923,1.882,4.363,3.511,73.0,530.0
2015-01-12,Hanoi,Vietnam,105.8342,21.0278,[105.3342 20.5278 106.3342 21.5278],3.36,1.911,5.455,3.904,3.058,2.006,4.286,3.433,83.0,526.0
2015-01-13,Hanoi,Vietnam,105.8342,21.0278,[105.3342 20.5278 106.3342 21.5278],3.763,2.006,6.164,4.103,3.292,2.056,4.711,3.557,89.0,549.0
2015-01-14,Hanoi,Vietnam,105.8342,21.0278,[105.3342 20.5278 106.3342 21.5278],3.299,1.968,5.455,3.938,3.216,1.937,5.173,3.759,92.0,540.0
2015-01-15,Hanoi,Vietnam,105.8342,21.0278,[105.3342 20.5278 106.3342 21.5278],3.763,2.012,6.5,4.364,3.55,1.95,5.952,4.06,118.0,537.0
2015-01-16,Hanoi,Vietnam,105.8342,21.0278,[105.3342 20.5278 106.3342 21.5278],3.763,2.012,6.5,4.364,3.665,2.132,5.81,4.071,118.0,543.0
2015-01-17,Hanoi,Vietnam,105.8342,21.0278,[105.3342 20.5278 106.3342 21.5278],3.36,2.012,6.217,4.171,3.399,2.135,5.691,3.995,130.0,529.0
2015-01-18,Hanoi,Vietnam,105.8342,21.0278,[105.3342 20.5278 106.3342 21.5278],3.36,2.012,6.217,4.171,3.327,2.155,5.623,3.933,130.0,542.0
2015-01-19,Hanoi,Vietnam,105.8342,21.0278,[105.3342 20.5278 106.3342 21.5278],2.846,1.551,5.353,3.682,2.92,1.793,5.054,3.601,144.0,523.0
2015-01-20,Hanoi,Vietnam,105.8342,21.0278,[105.3342 20.5278 106.3342 21.5278],3.008,1.9,5.57,3.862,3.039,2.075,5.137,3.705,140.0,541.0
2015-01-21,Hanoi,Vietnam,105.8342,21.0278,[105.3342 20.5278 106.3342 21.5278],3.229,1.902,6.313,4.063,3.198,2.098,5.606,3.827,107.0,537.0
2015-01-22,Hanoi,Vietnam,105.8342,21.0278,[105.3342 20.5278 106.3342 21.5278],3.229,1.902,6.313,4.04,3.191,2.103,5.669,3.841,102.0,548.0
2015-01-23,Hanoi,Vietnam,105.8342,21.0278,[105.3342 20.5278 106.3342 21.5278],2.823,1.64,5.57,3.695,2.57,1.769,4.387,3.109,79.0,547.0
2015-01-24,Hanoi,Vietnam,105.8342,21.0278,[105.3342 20.5278 106.3342 21.5278],2.823,1.64,5.57,3.695,2.537,1.75,4.323,3.112,79.0,542.0
2015-01-25,Hanoi,Vietnam,105.8342,21.0278,[105.3342 20.5278 106.3342 21.5278],2.823,1.64,5.57,3.695,2.855,1.972,4.792,3.494,79.0,582.0
2015-01-26,Hanoi,Vietnam,105.8342,21.0278,[105.3342 20.5278 106.3342 21.5278],2.823,1.64,5.57,3.695,2.849,1.936,4.789,3.61,79.0,558.0
2015-01-27,Hanoi,Vietnam,105.8342,21.0278,[105.3342 20.5278 106.3342 21.5278],2.386,1.398,4.014,3.419,2.829,1.961,4.337,3.635,64.0,563.0
2015-01-28,Hanoi,Vietnam,105.8342,21.0278,[105.3342 20.5278 106.3342 21.5278],2.386,1.398,3.54,3.181,2.839,1.973,4.174,3.555,55.0,558.0
2015-01-29,Hanoi,Vietnam,105.8342,21.0278,[105.3342 20.5278 106.3342 21.5278],2.39,1.398,3.996,3.318,2.875,2.035,4.367,3.619,52.0,579.0
2015-01-30,Hanoi,Vietnam,105.8342,21.0278,[105.3342 20.5278 106.3342 21.5278],1.64,1.032,2.823,1.898,2.818,1.907,4.224,3.199,28.0,568.0
2015-01-31,Hanoi,Vietnam,105.8342,21.0278,[105.3342 20.5278 106.3342 21.5278],1.64,1.032,2.823,1.898,2.751,1.885,3.955,3.103,28.0,566.0
2015-02-01,Hanoi,Vietnam,105.8342,21.0278,[105.3342 20.5278 106.3342 21.5278],1.398,1.017,1.902,1.602,2.822,2.046,4.238,3.308,16.0,569.0
2015-02-02,Hanoi,Vietnam,105.8342,21.0278,[105.3342 20.5278 106.3342 21.5278],1.398,1.017,1.902,1.602,2.975,1.963,4.488,3.473,16.0,555.0
2015-02-03,Hanoi,Vietnam,105.8342,21.0278,[105.3342 20.5278 106.3342 21.5278],5.523,3.789,5.523,4.945,3.145,2.075,4.731,3.685,2.0,566.0
2015-02-04,Hanoi,Vietnam,105.8342,21.0278,[105.3342 20.5278 106.3342 21.5278],5.523,3.789,5.523,4.945,3.15,2.069,4.75,3.7,2.0,549.0
2015-02-05,Hanoi,Vietnam,105.8342,21.0278,[105.3342 20.5278 106.3342 21.5278],5.523,3.789,5.523,4.945,3.31,2.165,4.91,3.801,2.0,563.0
2015-02-06,Hanoi,Vietnam,105.8342,21.0278,[105.3342 20.5278 106.3342 21.5278],5.523,3.789,5.523,4.945,3.322,2.175,4.927,3.81,2.0,557.0
2015-02-07,Hanoi,Vietnam,105.8342,21.0278,[105.3342 20.5278 106.3342 21.5278],5.523,3.789,5.523,4.945,3.506,2.412,4.986,4.053,2.0,569.0
2015-02-08,Hanoi,Vietnam,105.8342,21.0278,[105.3342 20.5278 106.3342 21.5278],5.523,3.789,5.523,4.945,3.461,2.38,5.02,4.037,2.0,567.0
2015-02-09,Hanoi,Vietnam,105.8342,21.0278,[105.3342 20.5278 106.3342 21.5278],5.523,3.789,5.523,4.945,3.213,2.244,4.587,3.761,2.0,556.0
2015-02-10,Hanoi,Vietnam,105.8342,21.0278,[105.3342 20.5278 106.3342 21.5278],5.523,3.789,5.523,4.945,3.184,2.246,4.543,3.724,2.0,565.0
2015-02-11,Hanoi,Vietnam,105.8342,21.0278,[105.3342 20.5278 106.3342 21.5278],5.523,3.789,5.523,4.945,3.18,2.226,4.443,3.661,2.0,516.0
2015-02-12,Hanoi,Vietnam,105.8342,21.0278,[105.3342 20.5278 106.3342 21.5278],5.523,3.789,5.523,4.945,3.166,2.223,4.446,3.684,2.0,522.0
2015-02-13,Hanoi,Vietnam,105.8342,21.0278,[105.3342 20.5278 106.3342 21.5278],5.523,3.789,5.523,4.945,3.157,2.201,4.542,3.666,2.0,517.0
2015-02-14,Hanoi,Vietnam,105.8342,21.0278,[105.3342 20.5278 106.3342 21.5278],2.071,0.672,3.471,2.163,3.263,2.095,4.572,3.691,13.0,541.0
2015-02-15,Hanoi,Vietnam,105.8342,21.0278,[105.3342 20.5278 106.3342 21.5278],2.224,0.973,3.471,2.345,3.454,2.076,4.683,3.827,16.0,532.0
2015-02-16,Hanoi,Vietnam,105.8342,21.0278,[105.3342 20.5278 106.3342 21.5278],4.071,2.995,5.206,3.766,3.309,2.134,4.767,3.789,33.0,531.0
2015-02-17,Hanoi,Vietnam,105.8342,21.0278,[105.3342 20.5278 106.3342 21.5278],4.071,2.995,5.206,3.766,3.31,2.167,4.557,3.691,33.0,537.0
2015-02-18,Hanoi,Vietnam,105.8342,21.0278,[105.3342 20.5278 106.3342 21.5278],3.938,3.171,4.76,3.933,3.345,2.272,4.473,3.692,57.0,526.0
2015-02-19,Hanoi,Vietnam,105.8342,21.0278,[105.3342 20.5278 106.3342 21.5278],3.938,3.171,4.76,3.933,3.341,2.271,4.458,3.677,57.0,536.0
2015-02-20,Hanoi,Vietnam,105.8342,21.0278,[105.3342 20.5278 106.3342 21.5278],3.098,2.24,4.175,3.153,2.922,2.004,4.038,3.365,77.0,519.0
2015-02-21,Hanoi,Vietnam,105.8342,21.0278,[105.3342 20.5278 106.3342 21.5278],3.098,2.24,4.175,3.153,3.011,1.979,4.156,3.41,77.0,535.0
2015-02-22,Hanoi,Vietnam,105.8342,21.0278,[105.3342 20.5278 106.3342 21.5278],3.098,2.24,4.175,3.153,2.997,2.071,4.029,3.326,77.0,529.0
2015-02-23,Hanoi,Vietnam,105.8342,21.0278,[105.3342 20.5278 106.3342 21.5278],3.098,2.224,4.172,3.126,3.756,2.634,5.719,4.415,79.0,541.0
2015-02-24,Hanoi,Vietnam,105.8342,21.0278,[105.3342 20.5278 106.3342 21.5278],3.098,2.224,4.172,3.126,3.901,2.812,5.916,4.597,79.0,539.0
2015-02-25,Hanoi,Vietnam,105.8342,21.0278,[105.3342 20.5278 106.3342 21.5278],3.098,2.224,4.172,3.126,4.138,2.872,5.817,4.607,79.0,534.0
2015-02-26,Hanoi,Vietnam,105.8342,21.0278,[105.3342 20.5278 106.3342 21.5278],3.098,2.224,4.172,3.126,4.222,3.051,5.915,4.722,79.0,573.0
2015-02-27,Hanoi,Vietnam,105.8342,21.0278,[105.3342 20.5278 106.3342 21.5278],3.098,2.224,4.172,3.126,4.289,3.111,5.974,4.76,79.0,551.0
2015-02-28,Hanoi,Vietnam,105.8342,21.0278,[105.3342 20.5278 106.3342 21.5278],3.098,2.224,4.172,3.126,4.348,3.134,5.964,4.829,79.0,559.0
2015-03-01,Hanoi,Vietnam,105.8342,21.0278,[105.3342 20.5278 106.3342 21.5278],3.152,2.28,4.175,3.201,4.473,3.386,6.086,4.997,66.0,555.0
2015-03-02,Hanoi,Vietnam,105.8342,21.0278,[105.3342 20.5278 106.3342 21.5278],3.156,2.28,4.172,3.195,4.495,3.367,5.943,4.92,63.0,577.0
2015-03-03,Hanoi,Vietnam,105.8342,21.0278,[105.3342 20.5278 106.3342 21.5278],2.866,1.907,3.61,2.91,4.697,3.498,6.188,5.485,46.0,568.0
2015-03-04,Hanoi,Vietnam,105.8342,21.0278,[105.3342 20.5278 106.3342 21.5278],2.866,1.907,3.61,2.91,4.697,3.499,6.188,5.486,46.0,567.0
2015-03-05,Hanoi,Vietnam,105.8342,21.0278,[105.3342 20.5278 106.3342 21.5278],2.24,1.266,2.624,2.08,4.789,3.57,6.296,5.617,22.0,569.0
2015-03-06,Hanoi,Vietnam,105.8342,21.0278,[105.3342 20.5278 106.3342 21.5278],2.24,1.266,2.624,2.08,4.774,3.6,6.261,5.676,22.0,556.0
2015-03-07,Hanoi,Vietnam,105.8342,21.0278,[105.3342 20.5278 106.3342 21.5278],1.568,0.666,1.568,1.15,5.15,3.862,7.014,6.201,2.0,567.0
2015-03-08,Hanoi,Vietnam,105.8342,21.0278,[105.3342 20.5278 106.3342 21.5278],4.018,2.797,4.908,3.613,5.268,4.064,6.876,6.213,12.0,550.0
2015-03-09,Hanoi,Vietnam,105.8342,21.0278,[105.3342 20.5278 106.3342 21.5278],4.018,2.797,4.908,3.613,5.276,4.083,6.795,6.251,12.0,564.0
2015-03-10,Hanoi,Vietnam,105.8342,21.0278,[105.3342 20.5278 106.3342 21.5278],4.778,4.161,5.05,4.459,4.639,3.733,5.986,5.388,25.0,557.0
2015-03-11,Hanoi,Vietnam,105.8342,21.0278,[105.3342 20.5278 106.3342 21.5278],4.939,4.518,5.229,5.068,5.145,4.21,6.083,5.832,58.0,571.0
2015-03-12,Hanoi,Vietnam,105.8342,21.0278,[105.3342 20.5278 106.3342 21.5278],4.97,4.684,5.456,5.139,5.268,4.268,6.679,5.995,66.0,566.0
2015-03-13,Hanoi,Vietnam,105.8342,21.0278,[105.3342 20.5278 106.3342 21.5278],4.97,4.684,5.456,5.139,5.463,4.648,6.957,6.182,66.0,557.0
2015-03-14,Hanoi,Vietnam,105.8342,21.0278,[105.3342 20.5278 106.3342 21.5278],4.97,4.684,5.456,5.139,5.596,4.621,6.811,6.144,66.0,571.0
2015-03-15,Hanoi,Vietnam,105.8342,21.0278,[105.3342 20.5278 106.3342 21.5278],4.97,4.684,5.456,5.139,5.656,4.76,7.007,6.22,66.0,521.0
2015-03-16,Hanoi,Vietnam,105.8342,21.0278,[105.3342 20.5278 106.3342 21.5278],4.97,4.684,5.456,5.139,5.591,4.689,7.022,6.213,66.0,527.0
2015-03-17,Hanoi,Vietnam,105.8342,21.0278,[105.3342 20.5278 106.3342 21.5278],4.97,4.684,5.456,5.139,5.752,4.758,7.224,6.435,66.0,520.0
2015-03-18,Hanoi,Vietnam,105.8342,21.0278,[105.3342 20.5278 106.3342 21.5278],4.97,4.684,5.456,5.139,5.691,4.738,6.879,5.954,66.0,543.0
2015-03-19,Hanoi,Vietnam,105.8342,21.0278,[105.3342 20.5278 106.3342 21.5278],4.97,4.684,5.456,5.139,5.707,4.832,6.921,5.977,66.0,535.0
2015-03-20,Hanoi,Vietnam,105.8342,21.0278,[105.3342 20.5278 106.3342 21.5278],4.97,4.684,5.456,5.139,5.7,4.802,6.901,5.992,66.0,536.0
2015-03-21,Hanoi,Vietnam,105.8342,21.0278,[105.3342 20.5278 106.3342 21.5278],4.97,4.684,5.456,5.119,5.634,4.811,6.832,5.937,72.0,541.0
2015-03-22,Hanoi,Vietnam,105.8342,21.0278,[105.3342 20.5278 106.3342 21.5278],4.97,4.684,5.456,5.119,5.785,4.892,7.091,6.064,72.0,526.0
2015-03-23,Hanoi,Vietnam,105.8342,21.0278,[105.3342 20.5278 106.3342 21.5278],5.155,4.778,5.558,5.442,5.992,4.929,7.287,6.271,62.0,539.0
2015-03-24,Hanoi,Vietnam,105.8342,21.0278,[105.3342 20.5278 106.3342 21.5278],5.172,4.778,5.957,5.563,5.944,4.934,7.269,6.241,72.0,523.0
2015-03-25,Hanoi,Vietnam,105.8342,21.0278,[105.3342 20.5278 106.3342 21.5278],5.572,4.932,6.948,6.006,5.843,4.694,7.375,6.218,57.0,541.0
2015-03-26,Hanoi,Vietnam,105.8342,21.0278,[105.3342 20.5278 106.3342 21.5278],4.975,4.312,5.671,5.149,5.752,4.592,7.52,6.168,44.0,533.0
2015-03-27,Hanoi,Vietnam,105.8342,21.0278,[105.3342 20.5278 106.3342 21.5278],4.975,4.039,5.653,5.132,5.659,4.476,7.316,6.047,69.0,549.0
2015-03-28,Hanoi,Vietnam,105.8342,21.0278,[105.3342 20.5278 106.3342 21.5278],4.975,4.039,5.892,5.165,5.496,4.19,7.299,5.896,80.0,546.0
2015-03-29,Hanoi,Vietnam,105.8342,21.0278,[105.3342 20.5278 106.3342 21.5278],4.975,3.995,5.688,5.108,5.419,4.101,7.31,5.849,85.0,538.0
2015-03-30,Hanoi,Vietnam,105.8342,21.0278,[105.3342 20.5278 106.3342 21.5278],4.975,3.995,5.688,5.108,5.162,3.815,7.263,5.754,85.0,579.0
2015-03-31,Hanoi,Vietnam,105.8342,21.0278,[105.3342 20.5278 106.3342 21.5278],4.975,3.995,5.688,5.108,5.14,3.805,7.156,5.657,85.0,556.0
2015-04-01,Hanoi,Vietnam,105.8342,21.0278,[105.3342 20.5278 106.3342 21.5278],4.975,3.995,5.688,5.108,5.185,3.963,6.784,5.64,85.0,566.0
2015-04-02,Hanoi,Vietnam,105.8342,21.0278,[105.3342 20.5278 106.3342 21.5278],4.975,3.995,5.688,5.108,5.047,3.902,6.479,5.505,85.0,558.0
2015-04-03,Hanoi,Vietnam,105.8342,21.0278,[105.3342 20.5278 106.3342 21.5278],4.975,3.995,5.688,5.108,5.087,3.983,6.391,5.486,85.0,577.0
2015-04-04,Hanoi,Vietnam,105.8342,21.0278,[105.3342 20.5278 106.3342 21.5278],4.975,3.995,5.688,5.108,5.045,3.905,6.258,5.418,85.0,572.0
2015-04-05,Hanoi,Vietnam,105.8342,21.0278,[105.3342 20.5278 106.3342 21.5278],4.586,3.523,5.572,4.559,4.93,3.75,6.199,5.25,107.0,571.0
2015-04-06,Hanoi,Vietnam,105.8342,21.0278,[105.3342 20.5278 106.3342 21.5278],4.312,2.659,5.442,4.165,4.737,3.439,5.879,4.983,134.0,578.0
2015-04-07,Hanoi,Vietnam,105.8342,21.0278,[105.3342 20.5278 106.3342 21.5278],4.039,2.657,5.442,4.155,4.54,3.376,5.746,4.804,159.0,562.0
2015-04-08,Hanoi,Vietnam,105.8342,21.0278,[105.3342 20.5278 106.3342 21.5278],3.824,2.486,5.04,3.86,4.473,3.355,5.556,4.713,149.0,575.0
2015-04-09,Hanoi,Vietnam,105.8342,21.0278,[105.3342 20.5278 106.3342 21.5278],3.796,2.183,5.008,3.8,4.537,3.398,5.55,4.736,151.0,556.0
2015-04-10,Hanoi,Vietnam,105.8342,21.0278,[105.3342 20.5278 106.3342 21.5278],3.222,1.931,5.008,3.58,4.297,3.331,5.432,4.485,131.0,575.0
2015-04-11,Hanoi,Vietnam,105.8342,21.0278,[105.3342 20.5278 106.3342 21.5278],3.564,2.065,4.082,3.369,4.36,3.322,5.17,4.424,115.0,566.0
2015-04-12,Hanoi,Vietnam,105.8342,21.0278,[105.3342 20.5278 106.3342 21.5278],3.466,2.065,3.966,3.294,4.325,3.343,5.091,4.388,137.0,580.0
2015-04-13,Hanoi,Vietnam,105.8342,21.0278,[105.3342 20.5278 106.3342 21.5278],3.564,2.121,4.143,3.378,4.443,3.365,5.197,4.462,146.0,573.0
2015-04-14,Hanoi,Vietnam,105.8342,21.0278,[105.3342 20.5278 106.3342 21.5278],3.621,2.295,4.247,3.443,4.554,3.491,5.363,4.543,157.0,561.0
2015-04-15,Hanoi,Vietnam,105.8342,21.0278,[105.3342 20.5278 106.3342 21.5278],3.621,2.295,4.247,3.443,4.557,3.489,5.371,4.537,157.0,570.0
2015-04-16,Hanoi,Vietnam,105.8342,21.0278,[105.3342 20.5278 106.3342 21.5278],3.621,2.295,4.247,3.443,4.46,3.369,5.238,4.401,157.0,519.0
2015-04-17,Hanoi,Vietnam,105.8342,21.0278,[105.3342 20.5278 106.3342 21.5278],3.621,2.295,4.247,3.443,4.427,3.405,5.284,4.433,157.0,531.0
2015-04-18,Hanoi,Vietnam,105.8342,21.0278,[105.3342 20.5278 106.3342 21.5278],3.621,2.295,4.247,3.443,4.362,3.309,5.182,4.362,157.0,525.0
2015-04-19,Hanoi,Vietnam,105.8342,21.0278,[105.3342 20.5278 106.3342 21.5278],3.621,2.295,4.253,3.445,4.265,3.045,5.162,4.201,162.0,543.0
2015-04-20,Hanoi,Vietnam,105.8342,21.0278,[105.3342 20.5278 106.3342 21.5278],3.621,2.183,4.229,3.429,4.268,3.01,5.159,4.2,147.0,531.0
2015-04-21,Hanoi,Vietnam,105.8342,21.0278,[105.3342 20.5278 106.3342 21.5278],3.722,2.49,4.343,3.593,4.272,3.016,5.168,4.2,128.0,530.0
2015-04-22,Hanoi,Vietnam,105.8342,21.0278,[105.3342 20.5278 106.3342 21.5278],3.621,2.44,4.176,3.351,4.264,3.119,5.102,4.183,123.0,534.0
2015-04-23,Hanoi,Vietnam,105.8342,21.0278,[105.3342 20.5278 106.3342 21.5278],3.564,2.323,4.143,3.3,4.226,3.058,4.992,4.152,130.0,518.0
2015-04-24,Hanoi,Vietnam,105.8342,21.0278,[105.3342 20.5278 106.3342 21.5278],3.564,2.44,4.158,3.348,4.021,2.755,4.935,3.964,128.0,529.0
2015-04-25,Hanoi,Vietnam,105.8342,21.0278,[105.3342 20.5278 106.3342 21.5278],2.678,1.644,3.911,2.835,3.581,2.401,4.709,3.674,156.0,511.0
2015-04-26,Hanoi,Vietnam,105.8342,21.0278,[105.3342 20.5278 106.3342 21.5278],2.323,1.397,3.67,2.604,3.462,2.343,4.622,3.559,139.0,529.0
2015-04-27,Hanoi,Vietnam,105.8342,21.0278,[105.3342 20.5278 106.3342 21.5278],2.038,1.462,2.781,2.264,3.154,2.286,4.23,3.343,122.0,519.0
2015-04-28,Hanoi,Vietnam,105.8342,21.0278,[105.3342 20.5278 106.3342 21.5278],1.937,1.397,2.468,2.063,2.734,1.88,3.849,2.979,135.0,536.0
2015-04-29,Hanoi,Vietnam,105.8342,21.0278,[105.3342 20.5278 106.3342 21.5278],1.774,1.397,2.238,1.854,2.419,1.684,3.324,2.597,140.0,537.0
2015-04-30,Hanoi,Vietnam,105.8342,21.0278,[105.3342 20.5278 106.3342 21.5278],1.958,1.462,2.276,1.922,2.224,1.578,2.896,2.325,164.0,531.0
2015-05-01,Hanoi,Vietnam,105.8342,21.0278,[105.3342 20.5278 106.3342 21.5278],1.928,1.397,2.273,1.886,2.215,1.574,2.855,2.311,187.0,570.0
2015-05-02,Hanoi,Vietnam,105.8342,21.0278,[105.3342 20.5278 106.3342 21.5278],1.928,1.397,2.27,1.88,2.096,1.511,2.703,2.185,189.0,545.0
2015-05-03,Hanoi,Vietnam,105.8342,21.0278,[105.3342 20.5278 106.3342 21.5278],1.928,1.397,2.27,1.88,2.058,1.514,2.576,2.118,189.0,554.0
2015-05-04,Hanoi,Vietnam,105.8342,21.0278,[105.3342 20.5278 106.3342 21.5278],1.887,1.397,2.238,1.839,2.027,1.512,2.583,2.091,190.0,552.0
2015-05-05,Hanoi,Vietnam,105.8342,21.0278,[105.3342 20.5278 106.3342 21.5278],1.876,1.306,2.233,1.827,2.024,1.486,2.593,2.085,178.0,576.0
2015-05-06,Hanoi,Vietnam,105.8342,21.0278,[105.3342 20.5278 106.3342 21.5278],1.792,1.301,2.219,1.804,1.995,1.489,2.57,2.082,173.0,560.0
2015-05-07,Hanoi,Vietnam,105.8342,21.0278,[105.3342 20.5278 106.3342 21.5278],1.602,1.239,2.164,1.682,1.774,1.324,2.281,1.88,182.0,562.0
2015-05-08,Hanoi,Vietnam,105.8342,21.0278,[105.3342 20.5278 106.3342 21.5278],1.651,1.3,2.164,1.726,1.795,1.374,2.262,1.897,201.0,562.0
2015-05-09,Hanoi,Vietnam,105.8342,21.0278,[105.3342 20.5278 106.3342 21.5278],1.61,1.212,2.161,1.696,1.733,1.356,2.236,1.835,206.0,547.0
2015-05-10,Hanoi,Vietnam,105.8342,21.0278,[105.3342 20.5278 106.3342 21.5278],1.798,1.378,2.214,1.799,1.782,1.392,2.23,1.863,178.0,558.0
2015-05-11,Hanoi,Vietnam,105.8342,21.0278,[105.3342 20.5278 106.3342 21.5278],1.626,1.251,2.164,1.729,1.772,1.39,2.231,1.857,206.0,539.0
2015-05-12,Hanoi,Vietnam,105.8342,21.0278,[105.3342 20.5278 106.3342 21.5278],1.635,1.212,2.196,1.713,1.822,1.432,2.29,1.91,190.0,560.0
2015-05-13,Hanoi,Vietnam,105.8342,21.0278,[105.3342 20.5278 106.3342 21.5278],1.425,1.087,2.118,1.56,1.794,1.433,2.302,1.894,176.0,550.0
2015-05-14,Hanoi,Vietnam,105.8342,21.0278,[105.3342 20.5278 106.3342 21.5278],1.391,1.025,2.092,1.523,1.745,1.361,2.247,1.832,182.0,563.0
2015-05-15,Hanoi,Vietnam,105.8342,21.0278,[105.3342 20.5278 106.3342 21.5278],1.306,1.015,1.798,1.395,1.773,1.388,2.271,1.865,164.0,563.0
2015-05-16,Hanoi,Vietnam,105.8342,21.0278,[105.3342 20.5278 106.3342 21.5278],1.279,0.855,1.798,1.351,1.715,1.317,2.246,1.822,165.0,555.0
2015-05-17,Hanoi,Vietnam,105.8342,21.0278,[105.3342 20.5278 106.3342 21.5278],1.279,0.855,1.798,1.353,1.742,1.338,2.279,1.848,164.0,568.0
2015-05-18,Hanoi,Vietnam,105.8342,21.0278,[105.3342 20.5278 106.3342 21.5278],1.279,0.855,1.798,1.353,1.758,1.329,2.299,1.863,164.0,518.0
2015-05-19,Hanoi,Vietnam,105.8342,21.0278,[105.3342 20.5278 106.3342 21.5278],1.279,0.909,1.801,1.362,1.773,1.318,2.324,1.857,158.0,522.0
2015-05-20,Hanoi,Vietnam,105.8342,21.0278,[105.3342 20.5278 106.3342 21.5278],1.251,0.809,1.654,1.315,1.722,1.256,2.251,1.816,197.0,516.0
2015-05-21,Hanoi,Vietnam,105.8342,21.0278,[105.3342 20.5278 106.3342 21.5278],1.289,0.827,1.714,1.333,1.692,1.245,2.293,1.816,231.0,544.0
2015-05-22,Hanoi,Vietnam,105.8342,21.0278,[105.3342 20.5278 106.3342 21.5278],1.298,0.89,1.744,1.357,1.702,1.263,2.315,1.836,221.0,531.0
2015-05-23,Hanoi,Vietnam,105.8342,21.0278,[105.3342 20.5278 106.3342 21.5278],1.282,0.885,1.654,1.325,1.666,1.238,2.24,1.799,224.0,536.0
2015-05-24,Hanoi,Vietnam,105.8342,21.0278,[105.3342 20.5278 106.3342 21.5278],1.355,0.921,1.832,1.481,1.72,1.252,2.351,1.861,245.0,541.0
2015-05-25,Hanoi,Vietnam,105.8342,21.0278,[105.3342 20.5278 106.3342 21.5278],1.379,1.015,1.99,1.529,1.636,1.188,2.328,1.795,270.0,526.0
2015-05-26,Hanoi,Vietnam,105.8342,21.0278,[105.3342 20.5278 106.3342 21.5278],1.379,0.885,2.076,1.537,1.624,1.115,2.309,1.758,242.0,539.0
2015-05-27,Hanoi,Vietnam,105.8342,21.0278,[105.3342 20.5278 106.3342 21.5278],1.355,0.777,2.026,1.481,1.526,1.003,2.18,1.658,256.0,521.0
2015-05-28,Hanoi,Vietnam,105.8342,21.0278,[105.3342 20.5278 106.3342 21.5278],1.438,0.89,2.115,1.552,1.531,1.04,2.161,1.655,243.0,540.0
2015-05-29,Hanoi,Vietnam,105.8342,21.0278,[105.3342 20.5278 106.3342 21.5278],1.427,0.89,2.125,1.566,1.543,1.048,2.248,1.683,221.0,530.0
2015-05-30,Hanoi,Vietnam,105.8342,21.0278,[105.3342 20.5278 106.3342 21.5278],1.438,0.89,2.161,1.569,1.486,0.984,2.163,1.616,225.0,544.0
2015-05-31,Hanoi,Vietnam,105.8342,21.0278,[105.3342 20.5278 106.3342 21.5278],1.446,0.962,2.226,1.62,1.427,0.941,2.141,1.587,201.0,543.0
2015-06-01,Hanoi,Vietnam,105.8342,21.0278,[105.3342 20.5278 106.3342 21.5278],1.446,0.964,2.226,1.623,1.425,0.932,2.138,1.578,200.0,533.0
2015-06-02,Hanoi,Vietnam,105.8342,21.0278,[105.3342 20.5278 106.3342 21.5278],1.451,0.964,2.233,1.623,1.368,0.902,2.085,1.545,221.0,573.0
2015-06-03,Hanoi,Vietnam,105.8342,21.0278,[105.3342 20.5278 106.3342 21.5278],1.379,0.895,2.125,1.554,1.33,0.879,2.015,1.503,241.0,551.0
2015-06-04,Hanoi,Vietnam,105.8342,21.0278,[105.3342 20.5278 106.3342 21.5278],1.451,0.962,2.37,1.689,1.354,0.872,2.018,1.521,201.0,559.0
2015-06-05,Hanoi,Vietnam,105.8342,21.0278,[105.3342 20.5278 106.3342 21.5278],1.379,0.94,2.334,1.654,1.335,0.88,2.008,1.493,171.0,553.0
2015-06-06,Hanoi,Vietnam,105.8342,21.0278,[105.3342 20.5278 106.3342 21.5278],1.427,0.918,2.379,1.651,1.326,0.864,1.994,1.454,184.0,578.0
2015-06-07,Hanoi,Vietnam,105.8342,21.0278,[105.3342 20.5278 106.3342 21.5278],1.234,0.862,2.334,1.571,1.292,0.834,2.022,1.44,165.0,567.0
2015-06-08,Hanoi,Vietnam,105.8342,21.0278,[105.3342 20.5278 106.3342 21.5278],1.138,0.822,1.977,1.344,1.279,0.757,1.894,1.348,144.0,568.0
2015-06-09,Hanoi,Vietnam,105.8342,21.0278,[105.3342 20.5278 106.3342 21.5278],1.086,0.803,1.579,1.232,1.332,0.781,1.86,1.384,146.0,575.0
2015-06-10,Hanoi,Vietnam,105.8342,21.0278,[105.3342 20.5278 106.3342 21.5278],1.195,0.843,1.773,1.314,1.33,0.777,1.938,1.411,172.0,561.0
2015-06-11,Hanoi,Vietnam,105.8342,21.0278,[105.3342 20.5278 106.3342 21.5278],1.254,0.874,1.85,1.386,1.369,0.804,1.968,1.451,158.0,572.0
2015-06-12,Hanoi,Vietnam,105.8342,21.0278,[105.3342 20.5278 106.3342 21.5278],1.195,0.862,1.773,1.34,1.362,0.814,1.946,1.439,168.0,554.0
2015-06-13,Hanoi,Vietnam,105.8342,21.0278,[105.3342 20.5278 106.3342 21.5278],1.195,0.862,1.773,1.34,1.31,0.75,1.978,1.422,168.0,573.0
2015-06-14,Hanoi,Vietnam,105.8342,21.0278,[105.3342 20.5278 106.3342 21.5278],1.195,0.862,1.843,1.354,1.343,0.763,2.009,1.441,167.0,563.0
2015-06-15,Hanoi,Vietnam,105.8342,21.0278,[105.3342 20.5278 106.3342 21.5278],1.195,0.863,1.85,1.373,1.297,0.789,1.936,1.421,186.0,576.0
2015-06-16,Hanoi,Vietnam,105.8342,21.0278,[105.3342 20.5278 106.3342 21.5278],1.194,0.862,1.773,1.35,1.264,0.804,1.844,1.367,202.0,573.0
2015-06-17,Hanoi,Vietnam,105.8342,21.0278,[105.3342 20.5278 106.3342 21.5278],1.171,0.862,1.686,1.331,1.226,0.723,1.791,1.316,181.0,565.0
2015-06-18,Hanoi,Vietnam,105.8342,21.0278,[105.3342 20.5278 106.3342 21.5278],1.195,0.842,1.773,1.344,1.243,0.734,1.818,1.339,182.0,575.0
2015-06-19,Hanoi,Vietnam,105.8342,21.0278,[105.3342 20.5278 106.3342 21.5278],1.195,0.842,1.773,1.344,1.188,0.708,1.809,1.305,182.0,525.0
2015-06-20,Hanoi,Vietnam,105.8342,21.0278,[105.3342 20.5278 106.3342 21.5278],1.259,0.862,1.859,1.382,1.243,0.714,1.83,1.321,175.0,533.0
2015-06-21,Hanoi,Vietnam,105.8342,21.0278,[105.3342 20.5278 106.3342 21.5278],0.962,0.619,1.563,1.115,1.182,0.683,1.756,1.272,182.0,525.0